This demonstration page uses our WeatherBlox Daily Observations layout. Learn more.

Left ArrowRight Arrow

Hourly Observations for April 28, 2019

Temp ( °F °C ) Dew Point ( °F °C ) Humidity (%) Winds ( mph kmh ) Pressure ( in mb ) Visibility ( mi km ) Precip ( " mm )
12:20 am 00:20 Mostly Cloudy 40 4.4 32 0 73 73 VRB 7 11 30.13 1020 10 16 0.00 0.00
12:52 am 00:52 Cloudy 40 4.4 32 0 73 73 N 7 11 30.14 1021 10 16 0.00 0.00
1:52 am 01:52 Cloudy 40 4.4 31 -0.6 70 70 E 3 6 30.16 1021 10 16 0.00 0.00
2:52 am 02:52 Cloudy 40 4.4 31 -0.6 70 70 ESE 3 6 30.12 1020 10 16 0.00 0.00
3:52 am 03:52 Cloudy 40 4.4 30 -1.1 68 68 E 9 15 30.12 1020 10 16 0.00 0.00
4:52 am 04:52 Cloudy with Light Snow 39 3.9 31 -0.6 73 73 SE 12 19 30.13 1020 10 16 0.00 0.03
5:52 am 05:52 Mostly Cloudy 39 3.9 31 -0.6 73 73 ESE 7 11 30.12 1020 10 16 0.00 0.03
6:17 am 06:17 Mostly Cloudy 39 3.9 31 -0.6 73 73 E 10 17 30.13 1020 10 16 0.00 0.00
6:52 am 06:52 Mostly Cloudy 39 3.9 31 -0.6 73 73 ESE 13 20 30.11 1020 10 16 0.00 0.00
7:09 am 07:09 Cloudy 39 3.9 31 -0.6 73 73 ESE 10 17 30.15 1021 10 16 0.00 0.03
7:17 am 07:17 Cloudy 39 3.9 31 -0.6 73 73 ESE 12 19 30.15 1021 10 16 0.00 0.03
7:32 am 07:32 Cloudy 39 3.9 31 -0.6 73 73 SE 17 28 30.14 1021 10 16 0.00 0.03
7:52 am 07:52 Cloudy 39 3.9 31 -0.6 73 73 ESE 12 19 30.12 1020 10 16 0.00 0.03
8:08 am 08:08 Cloudy 39 3.9 32 0 76 76 SE 10 17 30.14 1021 10 16 0.00 0.00
8:40 am 08:40 Cloudy 40 4.4 31 -0.6 70 70 ESE 16 26 30.10 1019 10 16 0.00 0.00
8:52 am 08:52 Cloudy 40 4.4 31 -0.6 70 70 ESE 16 26 30.08 1019 10 16 0.00 0.00
9:52 am 09:52 Cloudy 42 5.6 32 0 68 68 SE 14 22 30.08 1019 10 16 0.00 0.00
10:52 am 10:52 Cloudy 45 7.2 33 0.6 63 63 SE 21 33 30.07 1018 10 16 0.00 0.00
11:52 am 11:52 Cloudy 46 7.8 33 0.6 61 61 SE 24 39 30.06 1018 10 16 0.00 0.00
12:52 pm 12:52 Cloudy 48 8.9 33 0.6 56 56 SE 25 41 30.02 1017 10 16 0.00 0.00
1:52 pm 13:52 Cloudy 51 10.6 34 1.1 52 52 SSE 24 39 29.99 1016 10 16 0.00 0.00
2:52 pm 14:52 Cloudy 51 10.6 34 1.1 52 52 SSE 22 35 29.96 1015 10 16 0.00 0.00
3:52 pm 15:52 Cloudy 53 11.7 35 1.7 51 51 SE 17 28 29.91 1013 10 16 0.00 0.00
4:52 pm 16:52 Mostly Cloudy 55 12.8 34 1.1 45 45 SSE 22 35 29.87 1012 10 16 0.00 0.00
5:52 pm 17:52 Cloudy 55 12.8 35 1.7 47 47 SE 24 39 29.85 1011 10 16 0.00 0.00
6:52 pm 18:52 Cloudy 54 12.2 35 1.7 49 49 SE 15 24 29.83 1010 10 16 0.00 0.00
7:52 pm 19:52 Cloudy 54 12.2 35 1.7 49 49 SE 22 35 29.83 1010 10 16 0.00 0.00
8:52 pm 20:52 Cloudy 54 12.2 36 2.2 51 51 SSE 12 19 29.91 1013 10 16 0.00 0.00
9:52 pm 21:52 Cloudy 53 11.7 36 2.2 52 52 SSE 13 20 29.90 1013 10 16 0.00 0.00
10:52 pm 22:52 Cloudy with Light Rain 52 11.1 38 3.3 59 59 SSE 16 26 29.88 1012 10 16 0.00 0.03
11:52 pm 23:52 Cloudy 50 10 41 5 71 71 SE 14 22 29.80 1009 10 16 0.01 0.25

Powered by AerisWeather